.
WxDataArchive / Data Records for 2006-08-28
2006-08-27 August 2006 2006-08-29

Data Records for Monday, 28 August 2006

Time	Temp	Chill	HIndex	Humid	Dewpt	 Wind 	HiWind	WindDir	Rain 	Barom 
-----	----	-----	------	-----	-----	------	------	-------	-----	----- 
00:00	72.5	72.5	72.5	88	68.7	0	1	68	0.00	29.919 
00:05	72.5	72.5	72.5	88	68.7	0	2	68	0.00	29.919 
00:10	72.5	72.5	72.5	88	68.7	0	2	68	0.00	29.919 
00:15	72.5	72.5	72.5	88	68.7	0	2	68	0.00	29.927 
00:20	72.5	72.5	72.5	88	68.7	1	3	68	0.00	29.927 
00:25	72.5	72.5	72.5	88	68.7	1	2	68	0.00	29.927 
00:30	72.5	72.5	72.5	88	68.7	0	2	68	0.00	29.927 
00:35	72.5	72.5	72.5	88	68.7	0	2	68	0.00	29.927 
00:40	72.3	72.3	72.3	88	68.5	0	2	68	0.00	29.927 
00:45	72.3	72.3	72.3	87	68.2	1	3	68	0.00	29.926 
00:50	72.3	72.3	72.3	87	68.2	1	3	90	0.00	29.926 
00:55	72.3	72.3	72.3	87	68.2	1	3	112	0.00	29.926 
01:00	72.1	72.1	72.1	87	68.0	1	3	112	0.00	29.920 
01:05	72.1	72.1	72.1	87	68.0	2	6	112	0.00	29.920 
01:10	72.1	72.1	72.1	87	68.0	1	2	90	0.00	29.920 
01:15	72.1	72.1	72.1	87	68.0	1	2	90	0.00	29.927 
01:20	72.0	72.0	72.0	87	67.9	1	3	90	0.00	29.927 
01:25	72.0	72.0	72.0	87	67.9	1	4	90	0.00	29.927 
01:30	72.0	72.0	72.0	88	68.2	0	2	90	0.00	29.927 
01:35	72.0	72.0	72.0	88	68.2	1	3	135	0.00	29.927 
01:40	71.8	71.8	71.8	88	68.0	2	3	68	0.00	29.927 
01:45	71.8	71.8	71.8	88	68.0	1	3	68	0.00	29.926 
01:50	71.8	71.8	71.8	88	68.0	1	4	112	0.00	29.926 
01:55	71.8	71.8	71.8	88	68.0	1	3	112	0.00	29.926 
02:00	71.6	71.6	71.6	88	67.8	1	3	68	0.00	29.920 
02:05	71.6	71.6	71.6	88	67.8	2	4	68	0.00	29.920 
02:10	71.5	71.5	71.5	89	68.1	1	3	90	0.00	29.920 
02:15	71.5	71.5	71.5	89	68.1	1	2	90	0.00	29.919 
02:20	71.5	71.5	71.5	89	68.1	1	3	90	0.00	29.919 
02:25	71.3	71.3	71.3	89	67.9	1	4	90	0.00	29.919 
02:30	71.3	71.3	71.3	90	68.2	2	4	90	0.00	29.920 
02:35	71.3	71.3	71.3	90	68.2	1	3	90	0.00	29.920 
02:40	71.3	71.3	71.3	90	68.2	1	2	90	0.00	29.920 
02:45	71.1	71.1	71.1	91	68.3	1	3	90	0.00	29.916 
02:50	71.1	71.1	71.1	91	68.3	1	3	90	0.00	29.916 
02:55	71.1	71.1	71.1	91	68.3	1	3	90	0.00	29.916 
03:00	71.1	71.1	71.1	91	68.3	1	3	90	0.00	29.906 
03:05	71.1	71.1	71.1	92	68.7	1	3	90	0.00	29.906 
03:10	71.1	71.1	71.1	92	68.7	1	3	90	0.00	29.906 
03:15	71.1	71.1	71.1	92	68.7	1	3	90	0.00	29.903 
03:20	71.1	71.1	71.1	92	68.7	1	4	90	0.00	29.903 
03:25	71.1	71.1	71.1	92	68.7	1	4	90	0.00	29.903 
03:30	71.1	71.1	71.1	92	68.7	1	2	90	0.00	29.905 
03:35	71.1	71.1	71.1	93	69.0	1	4	90	0.00	29.905 
03:40	71.1	71.1	71.1	93	69.0	0	3	90	0.00	29.905 
03:45	71.1	71.1	71.1	93	69.0	1	4	112	0.00	29.901 
03:50	71.1	71.1	71.1	93	69.0	1	4	90	0.00	29.901 
03:55	71.1	71.1	71.1	93	69.0	1	4	90	0.00	29.901 
04:00	71.1	71.1	71.1	93	69.0	1	3	90	0.00	29.895 
04:05	70.9	70.9	70.9	93	68.8	2	6	90	0.00	29.895 
04:10	70.9	70.9	70.9	93	68.8	1	4	90	0.00	29.895 
04:15	70.9	70.9	70.9	93	68.8	2	4	90	0.00	29.893 
04:20	70.9	70.9	70.9	93	68.8	2	6	90	0.00	29.893 
04:25	70.8	70.8	70.8	93	68.7	2	5	90	0.00	29.893 
04:30	70.8	70.8	70.8	93	68.7	1	3	90	0.00	29.888 
04:35	70.8	70.8	70.8	93	68.7	1	3	90	0.00	29.888 
04:40	70.8	70.8	70.8	93	68.7	2	3	90	0.00	29.888 
04:45	70.8	70.8	70.8	93	68.7	3	7	90	0.00	29.886 
04:50	70.8	70.8	70.8	93	68.7	3	7	90	0.00	29.886 
04:55	70.8	70.8	70.8	92	68.4	3	7	90	0.00	29.886 
05:00	70.6	70.6	70.6	92	68.2	3	6	68	0.00	29.889 
05:05	70.6	70.6	70.6	92	68.2	2	4	112	0.00	29.889 
05:10	70.6	70.6	70.6	92	68.2	3	6	90	0.00	29.889 
05:15	70.6	70.6	70.6	92	68.2	3	9	90	0.00	29.891 
05:20	70.6	70.6	70.6	92	68.2	2	5	90	0.00	29.891 
05:25	70.6	70.6	70.6	92	68.2	2	4	90	0.00	29.891 
05:30	70.4	70.4	70.4	92	68.0	2	3	90	0.00	29.892 
05:35	70.4	70.4	70.4	92	68.0	2	4	112	0.00	29.892 
05:40	70.4	70.4	70.4	92	68.0	3	5	90	0.00	29.892 
05:45	70.4	70.4	70.4	92	68.0	2	5	90	0.00	29.892 
05:50	70.3	70.3	70.3	92	67.9	3	6	90	0.00	29.892 
05:55	70.3	70.3	70.3	92	67.9	3	6	90	0.00	29.892 
06:00	70.3	70.3	70.3	92	67.9	2	7	90	0.00	29.892 
06:05	70.3	70.3	70.3	92	67.9	3	5	90	0.00	29.892 
06:10	70.3	70.3	70.3	92	67.9	3	8	90	0.00	29.892 
06:15	70.3	70.3	70.3	92	67.9	2	4	90	0.00	29.891 
06:20	70.3	70.3	70.3	92	67.9	3	7	90	0.00	29.891 
06:25	70.3	70.3	70.3	92	67.9	2	5	112	0.00	29.891 
06:30	70.3	70.3	70.3	92	67.9	2	7	90	0.00	29.892 
06:35	70.3	70.3	70.3	92	67.9	2	5	90	0.00	29.892 
06:40	70.3	70.3	70.3	92	67.9	2	5	90	0.01	29.892 
06:45	70.3	70.3	70.3	92	67.9	3	6	90	0.00	29.890 
06:50	70.1	70.1	70.1	93	68.0	2	5	90	0.00	29.890 
06:55	70.1	70.1	70.1	93	68.0	3	5	90	0.00	29.890 
07:00	69.9	69.9	69.9	93	67.8	3	6	90	0.00	29.879 
07:05	69.9	69.9	69.9	94	68.1	2	7	90	0.00	29.879 
07:10	69.8	69.8	69.8	94	68.0	3	6	90	0.00	29.879 
07:15	69.6	69.6	69.6	94	67.8	3	5	90	0.01	29.881 
07:20	69.6	69.6	69.6	94	67.8	3	5	90	0.00	29.881 
07:25	69.6	69.6	69.6	94	67.8	2	6	90	0.00	29.881 
07:30	69.6	69.6	69.6	94	67.8	3	5	90	0.00	29.878 
07:35	69.6	69.6	69.6	94	67.8	3	6	90	0.00	29.878 
07:40	69.6	69.6	69.6	94	67.8	3	7	90	0.00	29.878 
07:45	69.6	69.6	69.6	94	67.8	3	7	90	0.00	29.883 
07:50	69.6	69.6	69.6	94	67.8	3	6	90	0.00	29.883 
07:55	69.6	69.6	69.6	95	68.1	1	3	90	0.00	29.883 
08:00	69.8	69.8	69.8	95	68.3	2	5	90	0.00	29.880 
08:05	69.6	69.6	69.6	95	68.1	2	5	90	0.00	29.880 
08:10	69.8	69.8	69.8	95	68.3	2	4	90	0.00	29.880 
08:15	69.8	69.8	69.8	95	68.3	2	4	90	0.00	29.877 
08:20	69.8	69.8	69.8	95	68.3	2	6	90	0.00	29.877 
08:25	69.8	69.8	69.8	95	68.3	3	4	90	0.00	29.877 
08:30	69.8	69.8	69.8	95	68.3	2	6	90	0.00	29.875 
08:35	69.8	69.8	69.8	95	68.3	2	4	112	0.00	29.875 
08:40	69.8	69.8	69.8	95	68.3	3	6	90	0.00	29.875 
08:45	69.8	69.8	69.8	95	68.3	3	5	90	0.00	29.876 
08:50	69.8	69.8	69.8	95	68.3	3	6	112	0.01	29.876 
08:55	69.8	69.8	69.8	95	68.3	3	6	90	0.00	29.876 
09:00	69.8	69.8	69.8	95	68.3	3	6	90	0.00	29.871 
09:05	69.8	69.8	69.8	95	68.3	2	7	68	0.01	29.871 
09:10	69.8	69.8	69.8	95	68.3	2	4	90	0.00	29.871 
09:15	69.8	69.8	69.8	96	68.6	3	6	90	0.00	29.863 
09:20	69.8	69.8	69.8	95	68.3	3	6	90	0.00	29.863 
09:25	69.8	69.8	69.8	95	68.3	3	6	90	0.00	29.863 
09:30	69.8	69.8	69.8	95	68.3	3	7	90	0.00	29.859 
09:35	69.8	69.8	69.8	95	68.3	3	7	90	0.00	29.859 
09:40	69.9	69.9	69.9	95	68.4	2	7	90	0.00	29.859 
09:45	69.9	69.9	69.9	95	68.4	3	5	90	0.00	29.852 
09:50	69.9	69.9	69.9	95	68.4	3	6	90	0.00	29.852 
09:55	69.9	69.9	69.9	95	68.4	2	5	90	0.01	29.852 
10:00	69.9	69.9	69.9	95	68.4	2	5	90	0.00	29.846 
10:05	69.9	69.9	69.9	95	68.4	2	6	90	0.00	29.846 
10:10	69.9	69.9	69.9	95	68.4	3	7	90	0.00	29.846 
10:15	69.9	69.9	69.9	95	68.4	2	4	90	0.00	29.847 
10:20	69.9	69.9	69.9	95	68.4	3	5	90	0.00	29.847 
10:25	70.1	70.1	70.1	95	68.6	2	5	90	0.01	29.847 
10:30	70.1	70.1	70.1	95	68.6	3	6	90	0.00	29.846 
10:35	70.1	70.1	70.1	95	68.6	2	6	90	0.00	29.846 
10:40	70.3	70.3	70.3	95	68.8	3	6	90	0.00	29.846 
10:45	70.3	70.3	70.3	95	68.8	3	7	90	0.00	29.845 
10:50	70.3	70.3	70.3	95	68.8	3	5	90	0.01	29.845 
10:55	70.3	70.3	70.3	95	68.8	2	5	90	0.00	29.845 
11:00	70.4	70.4	70.4	95	68.9	2	4	90	0.00	29.847 
11:05	70.6	70.6	70.6	95	69.1	2	6	90	0.00	29.847 
11:10	70.6	70.6	70.6	95	69.1	3	6	90	0.00	29.847 
11:15	70.6	70.6	70.6	94	68.8	2	6	90	0.00	29.846 
11:20	70.8	70.8	70.8	94	69.0	2	5	90	0.00	29.846 
11:25	70.6	70.6	70.6	94	68.8	2	5	90	0.00	29.846 
11:30	70.6	70.6	70.6	94	68.8	3	8	90	0.00	29.846 
11:35	70.8	70.8	70.8	94	69.0	3	6	90	0.00	29.846 
11:40	70.9	70.9	70.9	94	69.1	2	5	90	0.00	29.846 
11:45	70.9	70.9	70.9	93	68.8	2	4	112	0.00	29.846 
11:50	70.9	70.9	70.9	93	68.8	2	6	90	0.00	29.846 
11:55	70.9	70.9	70.9	93	68.8	2	5	90	0.00	29.846 
12:00	70.8	70.8	70.8	93	68.7	2	4	90	0.00	29.846 
12:05	70.8	70.8	70.8	93	68.7	3	5	90	0.00	29.846 
12:10	70.8	70.8	70.8	93	68.7	2	5	90	0.00	29.846 
12:15	70.9	70.9	70.9	93	68.8	2	5	90	0.00	29.843 
12:20	71.1	71.1	71.1	93	69.0	2	5	90	0.00	29.843 
12:25	71.3	71.3	71.3	93	69.2	2	5	90	0.00	29.843 
12:30	71.3	71.3	71.3	93	69.2	2	5	112	0.00	29.836 
12:35	71.3	71.3	71.3	92	68.8	3	6	90	0.00	29.836 
12:40	71.6	71.6	71.6	93	69.5	2	4	90	0.00	29.836 
12:45	71.8	71.8	71.8	92	69.3	2	5	90	0.00	29.830 
12:50	72.3	72.3	72.3	92	69.8	2	4	90	0.00	29.830 
12:55	72.3	72.3	72.3	90	69.2	3	7	90	0.00	29.830 
13:00	72.7	72.7	72.7	90	69.6	2	5	90	0.00	29.828 
13:05	72.8	72.8	72.8	90	69.7	1	4	90	0.00	29.828 
13:10	72.8	72.8	72.8	89	69.4	1	3	90	0.00	29.828 
13:15	72.7	72.7	72.7	89	69.3	2	3	90	0.00	29.822 
13:20	72.8	72.8	72.8	90	69.7	1	3	68	0.00	29.822 
13:25	72.8	72.8	72.8	89	69.4	2	5	68	0.00	29.822 
13:30	72.8	72.8	72.8	89	69.4	2	4	90	0.00	29.815 
13:35	73.0	73.0	73.0	89	69.6	2	5	90	0.00	29.815 
13:40	73.0	73.0	73.0	89	69.6	1	3	90	0.00	29.815 
13:45	73.2	73.2	73.2	89	69.8	2	4	90	0.00	29.813 
13:50	73.5	73.5	73.5	89	70.0	2	4	90	0.00	29.813 
13:55	73.9	73.9	73.9	88	70.1	2	5	90	0.00	29.813 
14:00	74.4	74.4	74.4	87	70.3	2	6	68	0.00	29.800 
14:05	74.7	74.7	74.7	85	69.9	3	7	90	0.00	29.800 
14:10	74.9	74.9	74.9	86	70.4	3	8	90	0.00	29.800 
14:15	75.1	75.1	74.9	86	70.6	3	6	90	0.00	29.796 
14:20	74.9	74.9	74.9	86	70.4	2	6	68	0.00	29.796 
14:25	74.6	74.6	74.6	86	70.1	3	6	90	0.00	29.796 
14:30	74.2	74.2	74.2	86	69.7	3	5	90	0.00	29.796 
14:35	74.0	74.0	74.0	87	69.9	4	6	90	0.00	29.796 
14:40	73.7	73.7	73.7	89	70.2	3	6	90	0.00	29.796 
14:45	73.3	73.3	73.3	89	69.9	3	7	90	0.00	29.785 
14:50	73.2	73.2	73.2	91	70.4	3	6	90	0.00	29.785 
14:55	73.0	73.0	73.0	92	70.5	1	3	90	0.00	29.785 
15:00	73.0	73.0	73.0	92	70.5	2	5	90	0.00	29.784 
15:05	73.0	73.0	73.0	93	70.8	2	4	90	0.00	29.784 
15:10	73.0	73.0	73.0	93	70.8	2	5	90	0.00	29.784 
15:15	73.0	73.0	73.0	93	70.8	1	3	90	0.00	29.781 
15:20	73.0	73.0	73.0	93	70.8	1	3	90	0.00	29.781 
15:25	73.2	73.2	73.2	93	71.0	1	2	45	0.00	29.781 
15:30	73.0	73.0	73.0	93	70.8	2	4	90	0.00	29.772 
15:35	73.0	73.0	73.0	93	70.8	2	4	90	0.00	29.772 
15:40	73.0	73.0	73.0	93	70.8	1	3	68	0.00	29.772 
15:45	72.8	72.8	72.8	93	70.7	0	2	68	0.00	29.768 
15:50	73.0	73.0	73.0	93	70.8	0	2	68	0.00	29.768 
15:55	72.8	72.8	72.8	93	70.7	1	4	90	0.01	29.768 
16:00	73.0	73.0	73.0	93	70.8	1	3	45	0.00	29.761 
16:05	73.0	73.0	73.0	94	71.2	1	3	112	0.02	29.761 
16:10	72.8	72.8	72.8	94	71.0	1	4	112	0.00	29.761 
16:15	72.8	72.8	72.8	94	71.0	1	3	112	0.02	29.752 
16:20	72.8	72.8	72.8	94	71.0	2	6	90	0.00	29.752 
16:25	72.7	72.7	72.7	94	70.9	1	4	90	0.00	29.752 
16:30	72.7	72.7	72.7	94	70.9	1	5	90	0.01	29.748 
16:35	72.7	72.7	72.7	94	70.9	1	4	90	0.03	29.748 
16:40	72.5	72.5	72.5	94	70.7	2	4	112	0.10	29.748 
16:45	72.3	72.3	72.3	94	70.5	2	4	90	0.11	29.741 
16:50	72.3	72.3	72.3	95	70.8	1	3	90	0.19	29.741 
16:55	72.1	72.1	72.1	95	70.6	2	4	90	0.02	29.741 
17:00	72.1	72.1	72.1	95	70.6	2	4	90	0.01	29.732 
17:05	72.1	72.1	72.1	95	70.6	2	4	90	0.03	29.732 
17:10	72.1	72.1	72.1	96	70.9	2	6	90	0.05	29.732 
17:15	72.0	72.0	72.0	96	70.8	2	6	90	0.02	29.716 
17:20	72.0	72.0	72.0	96	70.8	1	4	90	0.01	29.716 
17:25	72.1	72.1	72.1	96	70.9	2	7	90	0.00	29.716 
17:30	72.0	72.0	72.0	96	70.8	2	5	90	0.00	29.717 
17:35	72.1	72.1	72.1	96	70.9	1	3	90	0.00	29.717 
17:40	72.3	72.3	72.3	96	71.1	1	3	90	0.00	29.717 
17:45	72.3	72.3	72.3	96	71.1	0	3	90	0.00	29.715 
17:50	72.3	72.3	72.3	96	71.1	0	0	---	0.00	29.715 
17:55	72.5	72.5	72.5	96	71.3	0	1	90	0.00	29.715 
18:00	72.5	72.5	72.5	96	71.3	0	1	90	0.00	29.710 
18:05	72.7	72.7	72.7	96	71.5	0	1	90	0.00	29.710 
18:10	72.8	72.8	72.8	96	71.6	0	0	---	0.00	29.710 
18:15	73.2	73.2	73.2	96	72.0	0	1	90	0.00	29.705 
18:20	73.3	73.3	73.3	96	72.1	0	1	90	0.00	29.705 
18:25	73.7	73.7	73.7	96	72.5	0	0	---	0.00	29.705 
18:30	73.7	73.7	73.7	96	72.5	0	0	---	0.00	29.701 
18:35	73.9	73.9	73.9	96	72.7	0	0	---	0.00	29.701 
18:40	73.9	73.9	73.9	97	73.0	0	1	90	0.00	29.701 
18:45	73.9	73.9	73.9	97	73.0	0	2	90	0.00	29.699 
18:50	73.9	73.9	73.9	96	72.7	1	3	90	0.00	29.699 
18:55	73.9	73.9	73.9	96	72.7	1	3	112	0.00	29.699 
19:00	73.9	73.9	73.9	96	72.7	1	2	112	0.00	29.696 
19:05	73.9	73.9	73.9	96	72.7	1	3	112	0.00	29.696 
19:10	73.9	73.9	73.9	96	72.7	1	3	90	0.00	29.696 
19:15	73.9	73.9	73.9	96	72.7	1	3	90	0.00	29.691 
19:20	73.9	73.9	73.9	95	72.4	1	3	90	0.00	29.691 
19:25	73.7	73.7	73.7	95	72.2	1	4	90	0.00	29.691 
19:30	73.7	73.7	73.7	95	72.2	1	2	90	0.00	29.689 
19:35	73.7	73.7	73.7	95	72.2	0	2	90	0.13	29.689 
19:40	73.7	73.7	73.7	95	72.2	2	4	90	0.06	29.689 
19:45	73.5	73.5	73.5	95	72.0	1	2	90	0.01	29.687 
19:50	73.5	73.5	73.5	96	72.3	1	3	90	0.01	29.687 
19:55	73.5	73.5	73.5	96	72.3	2	5	112	0.00	29.687 
20:00	71.1	71.1	71.1	92	68.7	3	7	90	0.01	29.686 
20:05	69.9	69.9	69.9	92	67.5	2	4	112	0.07	29.686 
20:10	69.1	69.1	69.1	93	67.0	1	4	292	0.08	29.686 
20:15	68.4	68.4	68.4	93	66.3	2	7	90	0.07	29.694 
20:20	68.3	68.3	68.3	94	66.5	2	5	45	0.05	29.694 
20:25	67.3	67.3	67.3	93	65.2	1	5	292	0.21	29.694 
20:30	66.8	66.8	66.8	94	65.0	2	4	315	0.16	29.713 
20:35	66.6	66.6	66.6	95	65.1	2	6	90	0.03	29.713 
20:40	66.3	66.3	66.3	95	64.8	1	4	270	0.01	29.713 
20:45	66.0	66.0	66.0	95	64.5	1	12	68	0.02	29.709 
20:50	65.8	65.8	65.8	95	64.3	1	7	112	0.04	29.709 
20:55	65.6	65.6	65.6	95	64.1	2	10	112	0.03	29.709 
21:00	65.5	65.5	65.5	95	64.0	2	5	112	0.02	29.711 
21:05	65.5	65.5	65.5	96	64.3	1	5	68	0.02	29.711 
21:10	65.3	65.3	65.3	96	64.1	2	5	112	0.02	29.711 
21:15	65.3	65.3	65.3	96	64.1	1	4	68	0.01	29.714 
21:20	65.2	65.2	65.2	96	64.0	2	5	90	0.01	29.714 
21:25	65.2	65.2	65.2	96	64.0	2	6	90	0.00	29.714 
21:30	65.2	65.2	65.2	96	64.0	2	6	90	0.00	29.727 
21:35	65.2	65.2	65.2	96	64.0	2	6	68	0.00	29.727 
21:40	65.2	65.2	65.2	96	64.0	2	9	90	0.00	29.727 
21:45	65.2	65.2	65.2	96	64.0	2	4	112	0.00	29.725 
21:50	65.0	65.0	65.0	96	63.8	2	5	68	0.00	29.725 
21:55	65.0	65.0	65.0	96	63.8	2	5	112	0.00	29.725 
22:00	65.0	65.0	65.0	96	63.8	2	6	90	0.00	29.725 
22:05	65.0	65.0	65.0	96	63.8	2	5	90	0.00	29.725 
22:10	65.0	65.0	65.0	96	63.8	3	7	90	0.00	29.725 
22:15	65.0	65.0	65.0	95	63.5	2	6	90	0.00	29.728 
22:20	65.0	65.0	65.0	95	63.5	2	4	90	0.00	29.728 
22:25	65.0	65.0	65.0	96	63.8	1	3	90	0.00	29.728 
22:30	65.0	65.0	65.0	96	63.8	1	5	90	0.00	29.730 
22:35	64.8	64.8	64.8	96	63.6	1	3	90	0.00	29.730 
22:40	65.0	65.0	65.0	95	63.5	1	4	90	0.00	29.730 
22:45	65.0	65.0	65.0	96	63.8	2	4	68	0.00	29.729 
22:50	65.0	65.0	65.0	96	63.8	1	3	112	0.00	29.729 
22:55	65.0	65.0	65.0	96	63.8	1	4	112	0.00	29.729 
23:00	64.7	64.7	64.7	95	63.2	3	10	90	0.00	29.730 
23:05	64.5	64.5	64.5	95	63.0	2	4	90	0.00	29.730 
23:10	64.5	64.5	64.5	95	63.0	1	3	90	0.00	29.730 
23:15	64.3	64.3	64.3	95	62.8	3	6	90	0.00	29.729 
23:20	64.3	64.3	64.3	95	62.8	2	7	90	0.00	29.729 
23:25	64.3	64.3	64.3	95	62.8	2	7	90	0.00	29.729 
23:30	64.3	64.3	64.3	95	62.8	1	4	112	0.00	29.730 
23:35	64.3	64.3	64.3	95	62.8	2	5	112	0.00	29.730 
23:40	64.2	64.2	64.2	95	62.7	2	6	90	0.00	29.730 
23:45	64.2	64.2	64.2	95	62.7	2	5	112	0.00	29.730 
23:50	64.2	64.2	64.2	95	62.7	1	4	112	0.00	29.730 
23:55	64.2	64.2	64.2	95	62.7	1	4	90	0.00	29.730 

CoCoRaHS
IN-AL-39
A2 Web Hosting
Creative Commons License
GoDaddy
Look for:

loaded 2017-12-12 16:59:04 • last modified 2010-11-18 10:43:29
Privacy PolicyDisclaimer
• wx.awcolley.com is powered by PmWiki v.2002016 •
• all content (unless otherwise noted) © 2017 A W Colley